| time (UTC) | temp C | wind direction | speed KPH | gust KPH | rain 1hr cm | rain 24hr cm | rain mn cm | humidity % | barometer mb |
| 20260503003555 | 14 | 252 | 0.0 | 0.0 | 0.00 | 4.37 | 1.50 | 93 | 1022.2 |
| 20260503003052 | 14 | 252 | 0.0 | 0.0 | 0.00 | 4.70 | 1.50 | 94 | 1022.2 |
| 20260503002551 | 14 | 252 | 0.0 | 0.0 | 0.00 | 5.00 | 1.50 | 93 | 1022.1 |
| 20260503002024 | 15 | 252 | 0.0 | 0.0 | 0.00 | 5.23 | 1.50 | 93 | 1021.8 |
| 20260503001515 | 15 | 252 | 0.0 | 0.0 | 0.00 | 5.38 | 1.50 | 93 | 1021.7 |
| 20260503000950 | 15 | 252 | 0.0 | 1.6 | 0.00 | 5.87 | 1.50 | 93 | 1021.7 |
| 20260503000424 | 15 | 252 | 0.0 | 1.6 | 0.00 | 5.87 | 1.50 | 93 | 1021.6 |
| 20260502235917 | 15 | 252 | 0.0 | 0.0 | 0.00 | 5.87 | 1.50 | 93 | 1021.5 |
| 20260502235352 | 15 | 252 | 0.0 | 1.6 | 0.00 | 5.87 | 1.50 | 94 | 1021.5 |
| 20260502234826 | 15 | 252 | 1.6 | 3.2 | 0.00 | 5.89 | 1.50 | 94 | 1021.4 |
| 20260502234300 | 15 | 252 | 1.6 | 3.2 | 0.00 | 5.89 | 1.50 | 94 | 1021.3 |
| 20260502233800 | 15 | 252 | 1.6 | 3.2 | 0.00 | 5.89 | 1.50 | 94 | 1021.1 |
| 20260502233302 | 16 | 252 | 0.0 | 3.2 | 0.00 | 5.89 | 1.50 | 94 | 1021.2 |
| 20260502232758 | 16 | 252 | 0.0 | 1.6 | 0.00 | 5.89 | 1.50 | 94 | 1021.1 |
| 20260502232258 | 16 | 252 | 0.0 | 0.0 | 0.00 | 5.89 | 1.50 | 94 | 1021.1 |
| 20260502231752 | 16 | 252 | 0.0 | 1.6 | 0.00 | 5.89 | 1.50 | 93 | 1021.1 |
| 20260502231253 | 16 | 252 | 0.0 | 1.6 | 0.00 | 5.89 | 1.50 | 92 | 1021.1 |
| 20260502230737 | 16 | 252 | 0.0 | 1.6 | 0.00 | 5.89 | 1.50 | 92 | 1021.0 |
| 20260502230444 | 16 | 252 | 0.0 | 3.2 | 0.00 | 5.89 | 1.50 | 92 | 1021.0 |
| 20260502225643 | 16 | 252 | 0.0 | 3.2 | 0.00 | 5.89 | 1.50 | 92 | 1020.9 |
| 20260502225135 | 16 | 252 | 0.0 | 0.0 | 0.00 | 5.89 | 1.50 | 91 | 1020.8 |
| 20260502224634 | 16 | 252 | 0.0 | 0.0 | 0.00 | 5.89 | 1.50 | 91 | 1020.7 |
| 20260502224106 | 17 | 252 | 0.0 | 0.0 | 0.00 | 5.89 | 1.50 | 91 | 1020.7 |
| 20260502223554 | 17 | 252 | 0.0 | 0.0 | 0.00 | 5.89 | 1.50 | 90 | 1020.6 |
| 20260502223056 | 17 | 252 | 0.0 | 0.0 | 0.00 | 5.89 | 1.50 | 89 | 1020.6 |
| 20260502222527 | 17 | 252 | 0.0 | 0.0 | 0.00 | 5.89 | 1.50 | 89 | 1020.5 |
| 20260502222012 | 17 | 252 | 0.0 | 0.0 | 0.00 | 5.89 | 1.50 | 87 | 1020.5 |
| 20260502221513 | 17 | 252 | 0.0 | 0.0 | 0.00 | 5.89 | 1.50 | 87 | 1020.4 |
| 20260502220946 | 18 | 252 | 0.0 | 0.0 | 0.00 | 5.89 | 1.50 | 87 | 1020.2 |
| 20260502220443 | 18 | 252 | 0.0 | 3.2 | 0.00 | 5.89 | 1.50 | 87 | 1020.3 |
| 20260502215934 | 18 | 252 | 0.0 | 3.2 | 0.00 | 5.89 | 1.50 | 88 | 1020.3 |
| 20260502215432 | 18 | 252 | 0.0 | 3.2 | 0.00 | 5.89 | 1.50 | 87 | 1020.0 |
| 20260502215135 | 18 | 252 | 0.0 | 1.6 | 0.00 | 5.89 | 1.50 | 87 | 1020.1 |
| 20260502214355 | 18 | 252 | 0.0 | 3.2 | 0.00 | 5.89 | 1.50 | 87 | 1020.0 |
| 20260502214100 | 18 | 260 | 1.6 | 6.4 | 0.00 | 5.89 | 1.50 | 87 | 1020.0 |
| 20260502213302 | 18 | 242 | 3.2 | 9.7 | 0.00 | 5.89 | 1.50 | 87 | 1019.9 |
| 20260502213005 | 18 | 232 | 1.6 | 6.4 | 0.00 | 5.89 | 1.50 | 87 | 1019.6 |
| 20260502212837 | 18 | 247 | 3.2 | 9.7 | 0.00 | 5.89 | 1.50 | 88 | 1019.8 |
| 20260502211933 | 18 | 284 | 1.6 | 3.2 | 0.00 | 5.89 | 1.50 | 87 | 1019.6 |
| 20260502211159 | 18 | 284 | 0.0 | 3.2 | 0.00 | 5.89 | 1.50 | 86 | 1019.5 |
| 20260502210657 | 19 | 284 | 0.0 | 3.2 | 0.00 | 5.89 | 1.50 | 85 | 1019.4 |
| 20260502210130 | 19 | 284 | 1.6 | 4.8 | 0.00 | 5.89 | 1.50 | 86 | 1019.3 |
| 20260502205628 | 19 | 248 | 1.6 | 4.8 | 0.00 | 5.89 | 1.50 | 85 | 1019.3 |
| 20260502205100 | 20 | 249 | 0.0 | 1.6 | 0.00 | 5.89 | 1.50 | 85 | 1019.3 |
| 20260502204532 | 20 | 249 | 0.0 | 4.8 | 0.00 | 5.89 | 1.50 | 84 | 1019.2 |
| 20260502204014 | 20 | 249 | 1.6 | 4.8 | 0.00 | 5.89 | 1.50 | 84 | 1019.2 |
| 20260502203513 | 20 | 278 | 1.6 | 4.8 | 0.00 | 5.89 | 1.50 | 84 | 1019.2 |
| 20260502203014 | 21 | 273 | 1.6 | 4.8 | 0.00 | 5.92 | 1.50 | 84 | 1019.1 |
| 20260502202514 | 21 | 253 | 1.6 | 4.8 | 0.00 | 5.92 | 1.50 | 83 | 1019.1 |
| 20260502201954 | 21 | 300 | 1.6 | 3.2 | 0.00 | 5.92 | 1.50 | 82 | 1019.0 |
| 20260502201725 | 21 | 286 | 1.6 | 3.2 | 0.00 | 5.94 | 1.50 | 81 | 1019.0 |
| 20260502200955 | 21 | 286 | 1.6 | 3.2 | 0.00 | 5.99 | 1.50 | 81 | 1019.0 |
| 20260502200452 | 21 | 263 | 1.6 | 3.2 | 0.00 | 6.05 | 1.50 | 80 | 1018.9 |
| 20260502200219 | 21 | 264 | 1.6 | 6.4 | 0.00 | 6.15 | 1.50 | 80 | 1018.9 |
| 20260502195420 | 21 | 259 | 3.2 | 8.0 | 0.00 | 6.15 | 1.50 | 79 | 1018.9 |
| 20260502195146 | 21 | 245 | 3.2 | 6.4 | 0.00 | 6.15 | 1.50 | 79 | 1018.9 |
| 20260502194415 | 21 | 270 | 4.8 | 12.9 | 0.00 | 6.15 | 1.50 | 80 | 1018.8 |
| 20260502193845 | 21 | 250 | 3.2 | 12.9 | 0.00 | 6.15 | 1.50 | 79 | 1018.8 |
| 20260502193341 | 21 | 245 | 3.2 | 8.0 | 0.00 | 6.15 | 1.50 | 80 | 1018.7 |
| 20260502192827 | 21 | 259 | 4.8 | 8.0 | 0.00 | 6.15 | 1.50 | 79 | 1018.7 |
| 20260502192604 | 21 | 275 | 3.2 | 8.0 | 0.00 | 6.15 | 1.50 | 80 | 1018.4 |
| 20260502192326 | 21 | 253 | 3.2 | 8.0 | 0.00 | 6.15 | 1.50 | 79 | 1018.5 |
| 20260502191257 | 21 | 255 | 3.2 | 8.0 | 0.00 | 6.15 | 1.50 | 80 | 1018.3 |
| 20260502190745 | 21 | 255 | 6.4 | 12.9 | 0.00 | 6.15 | 1.50 | 79 | 1018.2 |
| 20260502190218 | 21 | 249 | 4.8 | 14.5 | 0.00 | 6.15 | 1.50 | 80 | 1018.2 |
| 20260502185947 | 21 | 254 | 3.2 | 8.0 | 0.00 | 6.15 | 1.50 | 80 | 1018.2 |
| 20260502185148 | 21 | 262 | 4.8 | 11.3 | 0.00 | 6.15 | 1.50 | 79 | 1018.1 |
| 20260502184621 | 21 | 249 | 4.8 | 14.5 | 0.00 | 6.15 | 1.50 | 78 | 1018.1 |
| 20260502184354 | 22 | 268 | 4.8 | 14.5 | 0.00 | 6.15 | 1.50 | 78 | 1018.1 |
| 20260502183612 | 22 | 187 | 4.8 | 11.3 | 0.00 | 6.15 | 1.50 | 78 | 1017.9 |
| 20260502183110 | 22 | 251 | 6.4 | 16.1 | 0.00 | 6.15 | 1.50 | 78 | 1018.0 |
| 20260502182545 | 22 | 258 | 6.4 | 16.1 | 0.00 | 6.15 | 1.50 | 78 | 1017.9 |
| 20260502182018 | 22 | 267 | 4.8 | 14.5 | 0.00 | 6.15 | 1.50 | 78 | 1017.9 |
| 20260502181742 | 22 | 205 | 4.8 | 12.9 | 0.00 | 6.15 | 1.50 | 78 | 1017.9 |
| 20260502181009 | 22 | 270 | 4.8 | 12.9 | 0.00 | 6.15 | 1.50 | 78 | 1017.9 |
| 20260502180444 | 22 | 289 | 3.2 | 11.3 | 0.00 | 6.15 | 1.50 | 80 | 1017.9 |
| 20260502170311 | 22 | 263 | 3.2 | 17.7 | 0.00 | 6.15 | 1.50 | 81 | 1017.9 |
| 20260502164218 | 22 | 276 | 8.0 | 16.1 | 0.00 | 6.15 | 1.50 | 81 | 1017.9 |
| 20260502163716 | 22 | 207 | 8.0 | 16.1 | 0.00 | 6.15 | 1.50 | 81 | 1018.0 |
| 20260502163214 | 22 | 266 | 8.0 | 19.3 | 0.00 | 6.15 | 1.50 | 81 | 1018.0 |
| 20260502162648 | 22 | 268 | 6.4 | 19.3 | 0.00 | 6.15 | 1.50 | 81 | 1018.0 |
| 20260502162118 | 22 | 249 | 6.4 | 20.9 | 0.00 | 6.15 | 1.50 | 82 | 1017.8 |
| 20260502161550 | 22 | 253 | 8.0 | 20.9 | 0.00 | 6.15 | 1.50 | 82 | 1017.6 |
| 20260502161048 | 22 | 257 | 6.4 | 14.5 | 0.00 | 6.15 | 1.50 | 82 | 1017.7 |
| 20260502160813 | 22 | 251 | 6.4 | 17.7 | 0.00 | 6.15 | 1.50 | 83 | 1017.6 |
| 20260502151945 | 23 | 272 | 6.4 | 16.1 | 0.00 | 6.15 | 1.50 | 83 | 1017.0 |
| 20260502151446 | 23 | 247 | 4.8 | 12.9 | 0.00 | 6.15 | 1.50 | 84 | 1016.8 |
| 20260502150920 | 23 | 257 | 4.8 | 12.9 | 0.00 | 6.15 | 1.50 | 83 | 1016.9 |
| 20260502150354 | 23 | 266 | 4.8 | 11.3 | 0.00 | 6.15 | 1.50 | 83 | 1016.9 |
| 20260502130733 | 20 | 310 | 1.6 | 4.8 | 0.00 | 6.15 | 1.50 | 96 | 1016.9 |
| 20260502130231 | 20 | 293 | 3.2 | 6.4 | 0.00 | 6.15 | 1.50 | 96 | 1016.5 |
| 20260502123330 | 20 | 212 | 1.6 | 4.8 | 0.00 | 6.15 | 1.50 | 96 | 1016.5 |
| 20260502122806 | 20 | 322 | 1.6 | 4.8 | 0.00 | 6.15 | 1.50 | 96 | 1016.4 |
| 20260502122529 | 20 | 305 | 1.6 | 9.7 | 0.00 | 6.15 | 1.50 | 96 | 1016.4 |
| 20260502121752 | 20 | 223 | 3.2 | 11.3 | 0.00 | 6.15 | 1.50 | 97 | 1016.1 |
| 20260502121249 | 20 | 258 | 3.2 | 9.7 | 0.00 | 6.15 | 1.50 | 97 | 1015.8 |
| 20260502120953 | 20 | 272 | 3.2 | 11.3 | 0.00 | 6.15 | 1.50 | 97 | 1015.7 |
| 20260502120213 | 20 | 312 | 3.2 | 11.3 | 0.00 | 6.15 | 1.50 | 97 | 1015.6 |
| 20260502115713 | 20 | 280 | 3.2 | 9.7 | 0.00 | 6.15 | 1.50 | 97 | 1015.6 |
| 20260502115145 | 20 | 280 | 4.8 | 11.3 | 0.00 | 6.15 | 1.50 | 97 | 1015.4 |
| 20260502114629 | 20 | 287 | 4.8 | 11.3 | 0.00 | 6.15 | 1.50 | 96 | 1015.1 |
| 20260502114116 | 20 | 294 | 4.8 | 11.3 | 0.00 | 6.15 | 1.50 | 96 | 1015.2 |
| 20260502113550 | 20 | 293 | 4.8 | 11.3 | 0.00 | 6.15 | 1.50 | 96 | 1015.4 |
| 20260502113037 | 20 | 272 | 3.2 | 12.9 | 0.00 | 6.15 | 1.50 | 96 | 1015.1 |
| 20260502112525 | 20 | 280 | 3.2 | 12.9 | 0.00 | 6.15 | 1.50 | 96 | 1014.9 |
| 20260502111958 | 20 | 289 | 4.8 | 12.9 | 0.00 | 6.15 | 1.50 | 96 | 1014.6 |
| 20260502111714 | 20 | 266 | 4.8 | 12.9 | 0.00 | 6.15 | 1.50 | 96 | 1014.6 |
| 20260502110932 | 20 | 271 | 4.8 | 9.7 | 0.00 | 6.15 | 1.50 | 96 | 1014.3 |
| 20260502110430 | 20 | 276 | 4.8 | 11.3 | 0.00 | 6.15 | 1.50 | 96 | 1014.1 |
| 20260502110157 | 20 | 274 | 3.2 | 11.3 | 0.00 | 6.15 | 1.50 | 96 | 1014.0 |
| 20260502105423 | 20 | 308 | 3.2 | 9.7 | 0.00 | 6.15 | 1.50 | 96 | 1013.7 |
| 20260502104923 | 20 | 287 | 1.6 | 8.0 | 0.00 | 6.15 | 1.50 | 96 | 1013.5 |
| 20260502104420 | 20 | 303 | 1.6 | 4.8 | 0.00 | 6.15 | 1.50 | 95 | 1013.3 |
| 20260502103907 | 20 | 303 | 1.6 | 4.8 | 0.00 | 6.15 | 1.50 | 95 | 1013.2 |
| 20260502103357 | 20 | 318 | 3.2 | 6.4 | 0.00 | 6.15 | 1.50 | 95 | 1013.1 |
| 20260502102855 | 20 | 318 | 4.8 | 9.7 | 0.00 | 6.15 | 1.50 | 95 | 1013.1 |
| 20260502102350 | 20 | 289 | 4.8 | 9.7 | 0.00 | 6.15 | 1.50 | 95 | 1013.0 |
| 20260502102120 | 20 | 326 | 3.2 | 6.4 | 0.00 | 6.15 | 1.50 | 95 | 1012.9 |
| 20260502101347 | 20 | 322 | 3.2 | 6.4 | 0.00 | 6.15 | 1.50 | 94 | 1012.5 |
| 20260502100820 | 20 | 290 | 4.8 | 9.7 | 0.00 | 6.15 | 1.50 | 94 | 1012.5 |
| 20260502100320 | 20 | 288 | 4.8 | 9.7 | 0.00 | 6.15 | 1.50 | 94 | 1012.3 |
| 20260502091416 | 20 | 290 | 8.0 | 19.3 | 0.00 | 6.15 | 1.50 | 93 | 1011.3 |
| 20260502090611 | 20 | 282 | 8.0 | 19.3 | 0.00 | 6.15 | 1.50 | 93 | 1011.4 |
| 20260502071208 | 19 | 24 | 1.6 | 9.7 | 0.03 | 6.15 | 1.50 | 98 | 1009.8 |
| 20260502070705 | 19 | 285 | 3.2 | 9.7 | 0.03 | 6.15 | 1.50 | 98 | 1009.9 |
| 20260502070143 | 19 | 289 | 4.8 | 11.3 | 0.03 | 6.15 | 1.50 | 98 | 1010.1 |
| 20260502065644 | 19 | 275 | 3.2 | 11.3 | 0.03 | 6.15 | 1.50 | 98 | 1010.2 |
| 20260502065146 | 19 | 304 | 4.8 | 8.0 | 0.03 | 6.15 | 1.50 | 98 | 1010.1 |
| 20260502065139 | 19 | 263 | 3.2 | 9.7 | 0.03 | 6.15 | 1.50 | 98 | 1010.2 |
| 20260502064356 | 19 | 307 | 8.0 | 14.5 | 0.05 | 6.15 | 1.50 | 98 | 1010.1 |
| 20260502063559 | 19 | 291 | 8.0 | 14.5 | 0.10 | 6.15 | 1.50 | 98 | 1010.2 |
| 20260502063100 | 19 | 284 | 6.4 | 14.5 | 0.10 | 6.15 | 1.50 | 98 | 1010.0 |
| 20260502062558 | 19 | 270 | 8.0 | 14.5 | 0.13 | 6.15 | 1.50 | 98 | 1010.2 |
| 20260502062059 | 19 | 262 | 6.4 | 14.5 | 0.18 | 6.15 | 1.50 | 98 | 1010.1 |
| 20260502061814 | 20 | 275 | 4.8 | 12.9 | 0.23 | 6.15 | 1.50 | 98 | 1010.1 |
| 20260502061044 | 20 | 187 | 8.0 | 17.7 | 0.23 | 6.12 | 1.47 | 98 | 1009.9 |
| 20260502060543 | 20 | 266 | 6.4 | 17.7 | 0.28 | 6.12 | 1.47 | 98 | 1010.2 |
| 20260502060041 | 20 | 247 | 4.8 | 11.3 | 0.36 | 6.12 | 1.47 | 98 | 1009.3 |
| 20260502055513 | 20 | 106 | 8.0 | 20.9 | 0.43 | 6.12 | 1.47 | 98 | 1008.0 |
| 20260502055011 | 20 | 187 | 8.0 | 20.9 | 0.48 | 6.12 | 1.47 | 98 | 1009.0 |
| 20260502054509 | 19 | 335 | 6.4 | 17.7 | 0.53 | 6.10 | 1.45 | 99 | 1008.3 |
| 20260502054005 | 19 | 101 | 4.8 | 16.1 | 0.56 | 6.07 | 1.42 | 98 | 1009.7 |
| 20260502053501 | 19 | 334 | 3.2 | 9.7 | 0.58 | 6.05 | 1.40 | 98 | 1010.1 |
| 20260502052959 | 19 | 287 | 3.2 | 6.4 | 0.66 | 6.05 | 1.40 | 98 | 1010.4 |
| 20260502052459 | 19 | 33 | 4.8 | 8.0 | 0.66 | 6.02 | 1.37 | 98 | 1010.0 |
| 20260502051957 | 19 | 38 | 4.8 | 12.9 | 0.66 | 5.97 | 1.32 | 98 | 1010.9 |
| 20260502051455 | 19 | 256 | 3.2 | 11.3 | 0.66 | 5.92 | 1.27 | 98 | 1011.6 |
| 20260502050950 | 19 | 210 | 3.2 | 9.7 | 0.69 | 5.87 | 1.22 | 98 | 1011.0 |
| 20260502050427 | 19 | 177 | 4.8 | 12.9 | 0.66 | 5.82 | 1.17 | 98 | 1011.5 |
| 20260502045917 | 19 | 270 | 8.0 | 16.1 | 0.64 | 5.77 | 1.12 | 98 | 1011.7 |
| 20260502045417 | 19 | 285 | 6.4 | 16.1 | 0.61 | 5.69 | 1.04 | 98 | 1011.7 |
| 20260502044913 | 19 | 305 | 4.8 | 11.3 | 0.58 | 5.61 | 0.99 | 98 | 1011.7 |
| 20260502044409 | 19 | 302 | 6.4 | 11.3 | 0.58 | 5.56 | 0.91 | 98 | 1011.8 |
| 20260502043909 | 19 | 277 | 4.8 | 11.3 | 0.56 | 5.49 | 0.86 | 98 | 1012.0 |
| 20260502043407 | 18 | 359 | 3.2 | 9.7 | 0.58 | 5.44 | 0.79 | 98 | 1011.8 |
| 20260502042839 | 18 | 332 | 3.2 | 9.7 | 0.58 | 5.38 | 0.74 | 98 | 1011.6 |
| 20260502042338 | 18 | 3 | 1.6 | 9.7 | 0.58 | 5.33 | 0.69 | 98 | 1011.5 |
| 20260502041826 | 18 | 343 | 0.0 | 0.0 | 0.56 | 5.28 | 0.64 | 98 | 1011.6 |
| 20260502041559 | 18 | 343 | 0.0 | 0.0 | 0.53 | 5.23 | 0.58 | 98 | 1011.5 |
| 20260502040801 | 18 | 103 | 0.0 | 3.2 | 0.51 | 5.18 | 0.53 | 98 | 1011.6 |
| 20260502040254 | 18 | 89 | 1.6 | 9.7 | 0.46 | 5.13 | 0.48 | 98 | 1011.5 |
| 20260502035758 | 18 | 64 | 1.6 | 9.7 | 0.46 | 5.11 | 0.46 | 98 | 1011.9 |
| 20260502035238 | 18 | 56 | 0.0 | 4.8 | 0.43 | 5.05 | 0.43 | 98 | 1012.2 |
| 20260502035002 | 18 | 151 | 0.0 | 3.2 | 0.46 | 5.03 | 0.38 | 98 | 1012.7 |
| 20260502034229 | 18 | 151 | 1.6 | 9.7 | 0.51 | 4.98 | 0.33 | 98 | 1012.7 |
| 20260502033728 | 18 | 168 | 4.8 | 12.9 | 0.46 | 4.88 | 0.25 | 98 | 1012.4 |
| 20260502033224 | 18 | 243 | 4.8 | 12.9 | 0.46 | 4.85 | 0.20 | 98 | 1012.7 |
| 20260502032724 | 18 | 260 | 8.0 | 17.7 | 0.41 | 4.78 | 0.13 | 98 | 1012.4 |
| 20260502032204 | 18 | 245 | 6.4 | 17.7 | 0.38 | 4.72 | 0.08 | 98 | 1012.5 |
| 20260502031707 | 18 | 242 | 4.8 | 9.7 | 0.38 | 4.70 | 0.05 | 98 | 1012.0 |
| 20260502031204 | 18 | 230 | 4.8 | 9.7 | 0.43 | 4.70 | 0.05 | 98 | 1011.3 |
| 20260502030945 | 18 | 272 | 3.2 | 8.0 | 0.46 | 4.67 | 0.03 | 98 | 1011.4 |
| 20260502030422 | 18 | 341 | 3.2 | 12.9 | 0.46 | 4.65 | 0.03 | 98 | 1011.2 |
| 20260502025639 | 18 | 334 | 3.2 | 12.9 | 0.46 | 4.65 | 4.65 | 98 | 1011.1 |
| 20260502025139 | 18 | 6 | 1.6 | 6.4 | 0.43 | 4.60 | 4.60 | 97 | 1011.1 |
| 20260502024857 | 18 | 97 | 1.6 | 6.4 | 0.43 | 4.57 | 4.57 | 97 | 1011.4 |
| 20260502024127 | 18 | 119 | 1.6 | 6.4 | 0.33 | 4.45 | 4.45 | 97 | 1011.6 |
| 20260502023835 | 18 | 141 | 3.2 | 8.0 | 0.30 | 4.42 | 4.42 | 97 | 1011.4 |
| 20260502023108 | 18 | 131 | 3.2 | 9.7 | 0.30 | 4.39 | 4.39 | 97 | 1011.3 |
| 20260502022829 | 18 | 116 | 1.6 | 6.4 | 0.30 | 4.37 | 4.37 | 97 | 1011.7 |
| 20260502022045 | 18 | 97 | 1.6 | 9.7 | 0.33 | 4.34 | 4.34 | 97 | 1011.8 |
| 20260502021542 | 18 | 133 | 1.6 | 9.7 | 0.38 | 4.29 | 4.29 | 97 | 1011.7 |
| 20260502021042 | 18 | 148 | 1.6 | 6.4 | 0.41 | 4.27 | 4.27 | 97 | 1011.7 |
| 20260502020541 | 18 | 111 | 1.6 | 11.3 | 0.48 | 4.22 | 4.22 | 97 | 1012.2 |
| 20260502020033 | 18 | 64 | 3.2 | 11.3 | 0.76 | 4.19 | 4.19 | 97 | 1012.1 |
| 20260502015504 | 18 | 85 | 3.2 | 9.7 | 1.24 | 4.19 | 4.19 | 97 | 1012.3 |
| 20260502015211 | 18 | 76 | 6.4 | 17.7 | 1.73 | 4.17 | 4.17 | 96 | 1012.9 |
| 20260502014441 | 18 | 54 | 11.3 | 17.7 | 1.91 | 4.14 | 4.14 | 96 | 1012.7 |
| 20260502013915 | 18 | 112 | 11.3 | 22.5 | 2.06 | 4.11 | 4.11 | 96 | 1012.7 |
| 20260502013644 | 18 | 79 | 12.9 | 22.5 | 2.41 | 4.11 | 4.11 | 97 | 1012.8 |
| 20260502012906 | 18 | 72 | 16.1 | 27.4 | 2.77 | 4.09 | 4.09 | 97 | 1012.2 |
| 20260502012402 | 18 | 91 | 16.1 | 27.4 | 2.97 | 4.06 | 4.06 | 97 | 1012.4 |
| 20260502011856 | 18 | 107 | 14.5 | 30.6 | 3.05 | 3.96 | 3.99 | 97 | 1012.5 |
| 20260502011354 | 18 | 81 | 16.1 | 30.6 | 3.20 | 3.91 | 3.91 | 97 | 1012.7 |
| 20260502011123 | 18 | 88 | 17.7 | 29.0 | 3.51 | 3.78 | 3.81 | 97 | 1012.4 |
| 20260502010320 | 18 | 99 | 14.5 | 29.0 | 3.35 | 3.63 | 3.63 | 97 | 1012.9 |
| 20260502005811 | 18 | 112 | 8.0 | 24.1 | 2.90 | 3.17 | 3.25 | 97 | 1014.0 |
| 20260502005310 | 18 | 119 | 4.8 | 14.5 | 2.54 | 2.82 | 2.82 | 96 | 1015.0 |
| 20260502004801 | 18 | 66 | 4.8 | 16.1 | 2.11 | 2.36 | 2.36 | 96 | 1015.1 |
| 20260502004526 | 18 | 122 | 4.8 | 19.3 | 1.96 | 2.21 | 2.21 | 96 | 1014.2 |
| 20260502003755 | 19 | 164 | 6.4 | 19.3 | 1.75 | 2.01 | 2.03 | 96 | 1013.6 |